Probability
0 0 0 0 0 0 0 0 0 0 0 0 0 0 0 0 0 0 0 0 0 0 0 0 0 0 0 0 0 0 0 0 0 0 0 0 0 0
0 0 0 0 0 0 0 0 0 0 0 0 0 0 0 0 0 0 0 0 0 0 0 0 0 0 0 0 0 0 0 0 0 0 0 0 0 0
0 0 0 0 0 0 0 0 0 0 0 0 0 0 0 0 0 0 0 0 0 0 0 0 0 0 0 0 0 0 0 0 0 0 0 0 0 0
0 0 0 0 0 0 0 0 0 0 0 0 0 0 0 0 0 0 0 0 0 0 0 0 0 0 0 0 0 0 0 0 0 0 0 0 0 0
0 0 0 0 0 0 0 0 0 0 0 0 0 0 0 0 0 0 0 0 0 0 0 0 0 0 0 0 0 0 0 0 0 0 0 0 0 0
0 0 0 0 0 0 0 0 0 0 0 0 0 0 0 0 0 0 0 0 0 0 0 0 0 0 0 0 0 0 0 0 0 0 0 0 0 0
0 0 0 0 0 0 0 0 0 0 0 0 0 0 0 0 0 0 0 0 0 0 0 0 0 0 0 0 0 0 0 0 0 0 0 0 0 0
0 0 0 0 0 0 0 0 0 0 0 0 0 0 0 0 0 0 0 0 0 0 0 0 0 0 0 0 0 0 0 0 0 0 0 0 0 0
0 0 0 0 0 0 0 0 0 0 0 0 0 0 0 0 0 0 0 0 0 0 0 0 0 0 0 0 0 0 0 0 0 0 0 0 0 0
0 0 0 0 0 0 0 0 0 0 0 0 0 0 0 0 0 0 0 0 0 0 0 0 0 0 0 0 0 0 0 0 0 0 0 0 0 0
0 0 0 0 0 0 0 0 0 0 0 0 0 0 0 0 0 0 0 0 0 0 0 0 0 0 0 0 0 0 0 0 0 0 0 0 0 0
0 0 0 0 0 0 0 0 0 0 0 0 0 0 0 0 0 0 0 0 0 0 0 0 0 0 0 0 0 0 0 0 0 0 0 0 0 0
0 0 0 0 0 0 0 0 0 0 0 0 0 0 0 0 0 0 0 0 0 0 0 0 0 0 0 0 0 0 0 0 0 0 0 0 0 0
0 0 0 0 0 0 0 0 0 0 0 0 0 0 0 0 0 0 0 0 0 0 0 0 0 0 0 0 0 0 0 0 0 0 0 0 0 0
0 0 0 0 0 0 0 0 0 0 0 0 0 0 0 0 0 0 0 0 0 0 0 0 0 0 0 0 0 0 0 0 0 0 0 0 0 0
0 0 0 0 0 0 0 0 0 0 0 0 0 0 0 0 0 0 0 0 0 0 0 0 0 0 0 0 0 0 0 0 0 0 0 0 0 0
0 0 0 0 0 0 0 0 0 0 0 0 0 0 0 0 0 0 0 0 0 0 0 0 0 0 0 0 0 0 0 0 0 0 0 0 0 0
0 0 0 0 0 0 0 0 0 0 0 0 0 0 0 0 0 0 0 0 0 0 0 0 0 0 0 0 0 0 0 0 0 0 0 0 0 0
0 0 0 0 0 0 0 0 0 0 0 0 0 0 0 0 0 0 0 0 0 0 0 0 0 0 0 0 0 0 0 0 0 0 0 0 0 0
0 0 0 0 0 0 0 0 0 0 0 0 0 0 0 0 0 0 0 0 0 0 0 0 0 0 0 0 0 0 0 0 0 0 0 0 0 0
0 0 0 0 0 0 0 0 0 0 0 0 0 0 0 0 0 0 0 0 0 0 0 0 0 0 0 0 0 0 0 0 0 0 0 0 0 0
0 0 0 0 0 0 0 0 0 0 0 0 0 0 0 0 0 0 0 0 0 0 0 0 0 0 0 0 0 0 0 0 0 0 0 0 0 0
0 0 0 0 0 0 0 0 0 0 0 0 0 0 0 0 0 0 0 0 0 0 0 0 0 0 0 0 0 0 0 0 0 0 0 0 0 0
Height
5749 5747 5746 5744 5741 5738 5735 5732 5729 5727 5725 5720 5716 5711 5706 5702 5698 5693 5688 5683 5678 5674 5669 5664 5659 5654 5649 5644 5639 5634 5630 5626 5622 5618 5615 5611 5608 5604
5739 5737 5735 5733 5730 5727 5724 5721 5717 5714 5712 5709 5704 5699 5694 5690 5685 5680 5675 5670 5665 5660 5656 5651 5646 5641 5635 5631 5626 5621 5617 5613 5609 5605 5602 5598 5595 5591
5728 5726 5724 5722 5719 5716 5713 5709 5706 5702 5699 5697 5691 5687 5682 5677 5672 5667 5663 5658 5652 5647 5642 5637 5632 5627 5622 5618 5613 5609 5604 5600 5596 5592 5589 5585 5582 5578
5717 5715 5713 5710 5708 5705 5701 5698 5694 5690 5687 5684 5680 5674 5670 5665 5660 5655 5650 5645 5640 5634 5629 5623 5618 5614 5609 5605 5600 5596 5592 5587 5583 5580 5576 5573 5569 5565
5705 5703 5701 5698 5696 5693 5689 5686 5682 5678 5674 5670 5667 5662 5657 5652 5647 5642 5637 5632 5627 5621 5616 5610 5605 5600 5596 5592 5588 5584 5579 5575 5571 5567 5564 5560 5557 5553
5694 5691 5689 5686 5683 5680 5677 5674 5670 5666 5661 5657 5653 5649 5645 5639 5634 5630 5625 5620 5614 5608 5602 5597 5592 5588 5584 5580 5576 5571 5567 5563 5559 5555 5551 5548 5544 5541
5682 5679 5676 5674 5671 5668 5664 5661 5657 5653 5648 5644 5640 5636 5632 5627 5622 5617 5612 5607 5602 5596 5591 5585 5581 5576 5572 5567 5563 5559 5555 5551 5547 5543 5539 5536 5532 5529
5669 5667 5664 5661 5658 5655 5651 5647 5643 5639 5635 5631 5627 5623 5619 5614 5609 5604 5599 5594 5590 5586 5579 5574 5569 5564 5559 5555 5551 5547 5543 5539 5535 5531 5528 5524 5521 5518
5657 5655 5652 5648 5645 5642 5639 5635 5630 5626 5622 5618 5614 5610 5605 5601 5596 5591 5586 5581 5576 5571 5567 5562 5557 5552 5547 5543 5539 5535 5531 5527 5523 5520 5517 5513 5510 5506
5645 5642 5639 5636 5632 5629 5626 5622 5618 5614 5609 5605 5601 5597 5592 5588 5583 5578 5573 5569 5564 5558 5553 5550 5545 5541 5535 5531 5527 5523 5519 5516 5512 5508 5505 5502 5498 5495
5632 5629 5626 5623 5619 5616 5613 5610 5606 5601 5597 5592 5588 5584 5579 5575 5570 5566 5561 5557 5553 5547 5541 5538 5534 5529 5525 5520 5516 5512 5508 5504 5501 5497 5493 5490 5486 5483
5619 5616 5613 5609 5606 5602 5599 5596 5593 5589 5585 5581 5576 5572 5567 5563 5558 5554 5549 5545 5540 5536 5531 5526 5522 5517 5515 5510 5506 5502 5497 5493 5490 5486 5482 5479 5475 5471
5606 5603 5600 5596 5593 5589 5586 5583 5580 5576 5573 5569 5565 5560 5556 5551 5546 5542 5537 5533 5528 5524 5519 5515 5511 5506 5502 5499 5496 5492 5487 5483 5479 5475 5471 5467 5463 5459
5593 5590 5587 5583 5580 5576 5573 5570 5567 5563 5560 5556 5553 5548 5544 5540 5535 5531 5526 5521 5517 5512 5508 5503 5500 5495 5491 5488 5485 5481 5477 5473 5469 5465 5460 5457 5453 5448
5580 5577 5574 5570 5567 5564 5561 5557 5554 5551 5548 5544 5540 5536 5532 5528 5524 5520 5515 5510 5505 5501 5497 5492 5488 5484 5480 5477 5474 5470 5467 5463 5459 5454 5450 5446 5442 5438
5566 5564 5561 5558 5555 5552 5548 5545 5542 5539 5536 5532 5529 5524 5520 5516 5512 5508 5504 5500 5495 5491 5486 5482 5478 5474 5470 5466 5463 5459 5456 5452 5449 5444 5440 5436 5432 5428
5554 5551 5549 5546 5543 5540 5537 5534 5531 5527 5524 5521 5517 5513 5509 5505 5501 5497 5493 5489 5485 5481 5477 5473 5468 5464 5460 5457 5454 5450 5446 5442 5438 5434 5431 5427 5422 5418
5541 5539 5537 5534 5531 5528 5526 5523 5520 5516 5513 5509 5506 5502 5498 5494 5491 5486 5482 5479 5475 5471 5468 5464 5459 5455 5452 5448 5445 5441 5437 5433 5429 5425 5421 5417 5413 5409
5529 5527 5524 5522 5520 5517 5514 5512 5509 5505 5502 5498 5495 5491 5488 5484 5481 5477 5473 5469 5466 5462 5458 5454 5450 5447 5443 5440 5436 5431 5428 5424 5420 5416 5412 5408 5404 5400
5517 5515 5513 5510 5508 5506 5503 5501 5498 5495 5491 5488 5485 5481 5478 5475 5471 5468 5464 5461 5457 5453 5449 5446 5442 5438 5434 5431 5427 5423 5418 5414 5411 5407 5403 5399 5395 5391
5505 5503 5501 5499 5497 5495 5493 5490 5487 5484 5481 5478 5475 5472 5468 5465 5462 5459 5455 5452 5448 5444 5441 5437 5433 5430 5426 5422 5419 5415 5410 5405 5401 5398 5394 5391 5387 5384
5493 5492 5490 5488 5486 5484 5482 5480 5477 5475 5472 5469 5466 5463 5459 5456 5453 5450 5447 5443 5440 5436 5432 5429 5425 5421 5418 5414 5410 5406 5402 5398 5393 5388 5384 5381 5378 5375
5483 5482 5480 5479 5477 5475 5472 5470 5468 5465 5463 5460 5457 5454 5451 5448 5445 5442 5439 5435 5431 5428 5424 5421 5417 5413 5410 5406 5402 5398 5394 5391 5386 5382 5378 5373 5369 5366
Wind_Speed
43 43 44 44 44 45 46 46 47 45 44 45 46 47 48 49 49 50 50 49 49 50 51 51 52 53 53 52 50 49 49 48 49 48 47 47 47 47
44 44 45 45 45 46 47 47 47 47 47 47 47 49 50 50 51 50 50 50 51 51 52 53 53 53 52 51 50 49 49 49 49 47 47 47 46 45
44 45 45 46 46 47 47 47 47 48 49 48 49 50 51 51 52 52 51 51 52 52 53 53 53 52 51 50 49 48 49 49 48 47 46 45 45 44
46 46 46 47 47 47 48 48 49 49 50 50 50 51 51 51 52 53 52 52 52 53 53 54 53 52 50 49 48 47 47 47 46 46 45 44 44 43
47 47 47 48 47 48 48 49 49 50 51 52 51 51 51 51 52 52 53 52 53 53 53 53 51 50 49 48 48 48 46 45 45 45 44 43 43 43
47 48 49 49 48 48 49 50 50 51 51 52 52 51 51 51 52 52 52 52 53 52 51 50 49 48 48 48 48 46 45 45 44 44 44 43 42 42
48 49 49 50 49 50 50 51 51 51 52 52 52 52 52 51 51 52 52 51 52 52 50 49 48 48 48 48 47 46 45 45 44 43 42 42 42 41
48 49 49 50 50 51 52 52 52 52 52 52 52 52 51 51 51 51 51 51 51 50 49 48 48 48 48 47 46 46 45 44 43 42 41 41 41 41
48 49 49 50 50 51 52 52 51 51 52 51 51 51 51 50 51 51 50 50 49 49 48 48 48 47 47 47 46 45 44 43 42 41 41 41 41 40
49 49 50 50 50 51 51 51 51 51 51 51 51 50 50 50 51 51 49 48 49 49 48 47 46 46 46 46 44 43 42 42 41 41 41 41 40 40
49 50 49 49 50 50 50 51 51 50 50 50 49 49 49 49 49 49 48 48 48 48 47 45 44 44 44 44 43 42 42 41 41 40 40 40 39 39
49 49 49 49 49 49 49 49 49 49 49 49 48 48 48 49 49 48 48 48 47 46 45 44 43 43 41 42 42 41 41 41 41 40 39 39 39 39
49 48 49 49 49 49 49 48 48 48 47 47 47 47 47 48 47 47 46 46 45 44 43 43 42 42 41 40 40 41 40 40 39 39 39 39 39 39
48 47 48 48 48 48 48 48 47 47 46 46 47 46 46 46 45 45 45 45 44 43 42 42 41 41 40 40 39 39 39 39 38 38 38 38 38 37
47 47 47 47 47 47 47 46 46 46 45 45 45 45 45 45 45 45 44 44 44 43 42 41 41 40 40 39 38 38 38 38 37 37 37 37 37 36
45 45 45 45 45 45 44 44 44 43 44 44 44 44 44 44 44 43 42 43 42 42 41 40 40 40 39 38 37 37 37 37 36 36 36 36 36 35
45 44 44 44 43 43 43 43 42 42 42 42 42 42 42 42 42 42 41 41 39 38 38 38 39 38 37 36 35 36 36 36 35 35 34 34 35 35
43 43 43 42 41 41 41 40 41 41 41 41 41 40 39 39 39 39 38 37 37 37 36 36 36 35 35 34 34 34 34 34 34 34 34 34 33 34
43 42 41 40 40 39 39 39 39 39 39 39 38 38 37 37 37 36 35 36 36 36 35 34 34 33 33 33 33 33 33 33 33 33 33 33 32 32
41 40 39 39 38 38 38 38 38 38 38 37 36 36 36 35 35 34 34 34 34 34 33 33 33 33 33 32 32 32 33 32 31 31 31 31 31 31
39 38 38 37 37 37 36 36 36 36 35 35 35 34 34 34 33 33 33 32 32 32 32 32 32 32 32 31 31 31 32 33 32 31 30 29 29 29
35 35 34 34 34 34 34 34 34 34 33 33 33 32 32 32 32 31 31 31 31 32 31 31 31 31 30 30 30 30 30 30 30 30 30 29 28 27
33 32 32 32 32 32 32 33 32 32 32 32 31 31 30 30 30 30 30 31 31 31 30 30 29 29 29 29 29 29 29 28 27 27 28 28 27 26
Wind_Direction
279 281 283 284 285 287 289 290 291 291 291 292 292 293 293 294 294 295 296 295 294 294 295 295 296 296 296 296 295 294 294 293 293 292 292 291 291 290
279 280 282 284 285 287 288 290 290 291 291 292 292 293 294 294 294 296 296 295 295 295 295 296 296 296 296 296 295 294 294 294 294 293 292 292 292 290
279 281 282 284 286 287 287 288 289 291 292 292 293 294 294 294 294 294 296 296 296 295 295 296 296 297 297 296 295 295 295 295 294 293 292 291 291 291
279 281 283 284 285 287 287 287 289 291 292 293 293 293 294 294 294 294 295 296 296 296 296 296 296 295 295 295 295 295 296 295 294 292 292 292 292 292
281 282 283 284 285 286 286 288 290 291 292 293 293 293 294 295 294 294 295 296 297 296 296 295 295 295 294 295 295 296 296 295 294 293 292 292 292 291
282 283 284 285 285 286 286 288 289 291 292 293 293 293 293 293 294 295 296 296 296 296 296 296 295 294 295 295 296 296 295 294 294 293 292 292 292 291
283 283 284 285 285 285 287 289 289 290 292 293 293 293 294 294 294 295 295 295 296 296 296 295 295 294 294 295 295 294 294 294 294 294 293 292 292 292
283 284 284 285 286 287 288 289 289 290 291 292 293 293 294 294 295 295 295 296 295 295 295 295 294 294 293 293 294 294 294 294 293 293 292 293 292 292
285 286 286 286 286 287 288 289 290 291 291 292 292 293 293 293 294 295 296 296 296 295 295 295 294 293 293 294 294 294 294 294 294 293 292 292 292 293
285 286 287 286 286 287 288 289 290 290 291 291 292 293 293 294 294 295 295 296 297 297 297 296 295 294 293 294 294 294 295 295 295 294 292 292 292 293
284 285 286 286 286 287 288 288 289 289 289 290 291 292 294 294 295 296 296 296 297 297 297 296 295 295 293 293 293 293 293 294 293 293 292 292 292 294
284 285 285 287 287 287 287 288 288 289 289 289 291 292 294 294 295 296 297 297 297 297 296 296 296 295 293 292 293 292 293 293 293 293 293 293 294 295
283 284 285 287 287 287 287 288 288 289 289 289 290 292 293 294 295 296 297 298 298 298 297 297 296 295 294 293 292 293 293 293 293 293 293 294 295 296
283 284 286 287 287 287 287 288 288 289 289 289 290 291 292 293 294 295 296 297 298 298 298 297 297 296 295 294 293 292 292 292 293 293 294 296 296 297
283 284 286 287 287 287 287 286 287 288 289 290 291 291 291 292 293 294 295 296 298 298 297 297 297 297 296 294 293 291 291 292 293 295 296 296 296 297
283 285 286 287 287 288 287 287 287 289 291 292 292 292 291 292 293 294 295 296 296 296 296 296 297 296 296 295 293 292 293 294 295 296 296 296 296 296
283 285 285 286 286 287 286 286 288 290 292 293 293 293 292 293 294 295 296 296 296 295 295 296 297 297 296 296 295 296 296 297 297 297 296 296 296 295
283 284 285 285 285 285 286 287 289 291 292 293 293 293 293 294 295 296 296 296 296 296 295 295 297 297 298 298 298 298 297 297 297 297 297 298 298 296
282 283 284 284 284 284 285 288 290 291 292 293 293 293 293 294 295 296 296 296 297 296 297 296 297 297 298 298 299 298 298 298 298 299 300 300 300 298
282 282 283 283 283 284 286 288 290 291 292 292 292 293 293 294 295 295 296 297 297 297 297 298 299 299 298 298 299 299 299 300 300 300 301 302 301 301
281 281 282 282 283 285 286 288 290 291 291 292 293 294 294 294 295 296 298 298 299 299 299 299 299 299 299 300 300 301 301 301 302 302 303 303 301 301
279 281 282 283 284 285 286 288 290 291 292 293 294 294 294 294 295 297 298 299 300 301 300 300 301 300 301 302 302 302 302 302 302 304 305 305 303 301
277 279 281 283 284 286 288 289 290 291 292 293 294 295 295 295 297 298 300 300 301 301 301 301 302 302 302 303 303 303 304 303 303 305 306 307 306 305